[[{"header":{"parameterUnit":"m.s-1","parameterCategory":1,"la1":30.2991,"la2":30.254,"lo1":-89.0895,"lo2":-89.0444,"dy":0.0017,"dx":0.0017,"nx":28,"ny":28,"refTime":"2025-07-20T03:00:00:Z","depth":0,"parameterNumber":2,"parameterNumberName":"U-component_of_WINDS"},"data":[0,0,0,0,0,0,0,0,0,0,0,0,0,0,0,0,0,0,0,0,0,0,0,0,0,0,0,0,0,0,0,0,0,0,0,0,0,0,0,0,0,0,0,0,0,0,0,0,0,0,0,0,0,0,0,0,0,0,3.024,3.0241,0,3.0309,3.031,3.0311,3.0323,3.0322,3.0322,3.0321,3.0394,3.0396,3.0399,0,0,0,0,0,0,0,0,0,0,0,0,0,3.0121,3.0123,3.024,3.0241,3.0242,3.0309,3.031,3.0311,3.0323,3.0322,3.0322,3.0321,3.0393,3.0396,3.0399,0,0,0,0,0,0,0,0,0,0,0,0,0,3.018,3.0124,3.024,3.0256,3.0258,3.0309,3.031,3.0311,3.0323,3.0322,3.0321,3.0321,3.0392,3.0396,3.0399,3.044,0,0,3.0411,3.0412,0,0,0,0,0,0,0,0,3.0177,3.0184,3.0253,3.0255,3.0257,3.0307,3.0295,3.0355,3.0323,3.0299,3.0321,3.032,3.0366,3.0372,3.0387,3.0444,3.0447,3.0411,3.0413,3.0415,3.0416,0,0,0,0,0,0,0,3.0173,3.0181,3.0268,3.0254,3.0257,3.0261,3.0268,3.0306,3.0336,3.0301,3.0302,3.031,3.0367,3.0383,3.0388,3.0448,3.0411,3.0414,3.0417,3.0418,3.0543,3.0544,0,0,0,0,0,0,3.0165,3.0178,3.0265,3.027,3.0214,3.0263,3.0272,3.0292,3.0336,3.0342,3.031,3.031,3.0377,3.0384,3.0391,3.0442,3.0415,3.0419,3.0421,3.0542,3.0544,3.0545,0,0,0,0,0,0,3.0163,3.0173,3.0263,3.0224,3.0236,3.0266,3.0289,3.0294,3.031,3.0343,3.0349,3.0321,3.0377,3.0386,3.0428,3.0445,3.042,3.0424,3.0541,3.0543,3.0544,3.0544,0,0,0,0,0,0,3.0159,3.0172,3.0187,3.0224,3.0238,3.0298,3.029,3.0296,3.0316,3.0316,3.0355,3.036,3.0377,3.0422,3.0432,3.0449,3.0427,3.054,3.0542,3.0544,3.0543,3.0546,3.0548,0,0,0,0,0,3.0155,3.0184,3.0187,3.0198,3.0257,3.0298,3.0306,3.0324,3.0317,3.0333,3.0355,3.0359,3.0442,3.0427,3.0437,3.0456,3.0539,3.0541,3.0543,3.0542,3.0545,3.0548,0,0,0,0,0,0,3.0148,3.0189,3.0193,3.0236,3.0263,3.03,3.032,3.0327,3.0357,3.0356,3.0378,3.0386,3.0428,3.0447,3.0429,3.0499,3.049,3.0494,3.0485,3.0488,3.0491,3.0485,3.043,0,0,0,0,0,3.0151,3.0181,3.0216,3.025,3.0263,3.029,3.0308,3.032,3.0349,3.0361,3.0386,3.0416,3.0449,3.047,3.0502,3.0546,3.0555,3.0565,3.0567,3.0569,3.0573,3.0599,3.0604,3.0553,3.0553,3.0553,0,0,3.0158,3.0185,3.0202,3.0249,3.0272,3.0303,3.0299,3.0332,3.0355,3.0367,3.0408,3.0427,3.0462,3.0506,3.0526,3.0523,3.0589,3.0572,3.0574,3.0576,3.0602,3.0607,3.0611,3.0554,3.0554,3.0554,0,0,3.0187,3.021,3.0241,3.0264,3.0299,3.0316,3.0324,3.0361,3.0374,3.0416,3.0425,3.0454,3.051,3.0534,3.0554,3.0594,3.06,3.0604,3.0617,3.0642,3.0646,3.065,3.0665,3.067,3.0608,3.0608,3.0608,0,3.0192,3.0238,3.0256,3.0289,3.0309,3.0321,3.0354,3.0376,3.0419,3.0434,3.0429,3.05,3.0524,3.0574,3.0584,3.06,3.061,3.0599,3.0644,3.0648,3.0652,3.0666,3.0672,3.0608,3.0608,3.0608,3.0608,0,3.0242,3.0274,3.0295,3.0337,3.036,3.0392,3.0417,3.0438,3.0448,3.0467,3.051,3.054,3.0578,3.0591,3.0601,3.0644,3.064,3.064,3.0631,3.0657,3.067,3.0676,3.0609,3.0608,3.0608,3.0608,0,0,3.0267,3.0319,3.0326,3.0346,3.0386,3.0412,3.0445,3.0483,3.0501,3.0532,3.0561,3.0609,3.0609,3.0631,3.0645,3.0667,3.0697,3.0664,3.0665,3.0669,3.0747,3.0746,3.0752,3.0702,3.0703,3.0704,3.0744,0,3.03,3.0359,3.0378,3.0428,3.0458,3.0471,3.05,3.0529,3.0547,3.0577,3.0598,3.0632,3.0629,3.0643,3.0665,3.0689,3.0713,3.0686,3.073,3.0731,3.072,3.0759,3.0759,3.0795,3.0749,3.075,3.0751,0,3.0346,3.0377,3.043,3.0468,3.0481,3.0507,3.0543,3.0571,3.0605,3.0617,3.0643,3.0654,3.0691,3.0681,3.0733,3.0714,3.0734,3.0748,3.075,3.0754,3.0742,3.0764,3.0807,3.0812,3.0759,3.0759,3.0758,0,3.0359,3.0414,3.0453,3.047,3.0514,3.0532,3.0552,3.0584,3.0606,3.0639,3.0653,3.069,3.071,3.0738,3.076,3.0751,3.081,3.0802,3.0822,3.0822,3.0833,3.0832,3.0879,3.0846,3.0846,3.0846,3.0846,0,3.0394,3.0426,3.046,3.0483,3.052,3.0542,3.0578,3.0598,3.0627,3.0656,3.067,3.0697,3.0725,3.0756,3.0774,3.0814,3.0823,3.0835,3.0839,3.0833,3.0832,3.0846,3.0843,3.0848,3.0847,3.0847,3.0847,0,3.0414,3.0438,3.0481,3.052,3.0531,3.0556,3.059,3.0614,3.0634,3.0671,3.0681,3.0713,3.075,3.0775,3.0823,3.0835,3.0879,3.0883,3.0868,3.087,3.0888,3.0886,3.0945,3.0954,3.0916,3.0917,3.0917,0,3.0434,3.0459,3.0501,3.0521,3.0541,3.0573,3.0596,3.0619,3.0642,3.0683,3.0702,3.0741,3.0772,3.0832,3.086,3.0897,3.0902,3.0921,3.0908,3.0902,3.0902,3.09,3.0903,3.0922,3.0922,3.0923,3.0923,0,3.0468,3.0479,3.051,3.0546,3.0573,3.0602,3.0632,3.0648,3.0677,3.0702,3.0741,3.0765,3.0815,3.0853,3.0893,3.0915,3.0924,3.0927,3.0933,3.0927,3.0917,3.0923,3.0873,3.0925,3.0925,3.0925,3.0925,3.0924,3.0489,3.0512,3.0545,3.058,3.0605,3.0633,3.0658,3.0681,3.0713,3.0755,3.0767,3.0808,3.0842,3.0897,3.0919,3.0952,3.095,3.0959,3.0962,3.0964,3.0964,3.0913,3.0959,3.0959,3.0959,3.0959,3.0959,0,3.0523,3.0546,3.0578,3.0619,3.0647,3.0653,3.0687,3.071,3.0745,3.0776,3.0807,3.0852,3.089,3.0921,3.096,3.098,3.0986,3.099,3.0988,3.0993,3.0963,3.0953,3.0985,3.0985,3.0985,3.0985,3.0985,3.0985,3.0544,3.0584,3.0599,3.0651,3.0674,3.0713,3.0732,3.0758,3.0783,3.0832,3.0863,3.0884,3.0915,3.0957,3.0993,3.1001,3.1015,3.1018,3.1027,3.0998,3.0995,3.0993,3.0983,3.1021,3.1021,3.1055,3.1055,3.1056]},{"header":{"parameterUnit":"m.s-1","parameterCategory":1,"la1":30.2991,"la2":30.254,"lo1":-89.0895,"lo2":-89.0444,"dy":0.0017,"dx":0.0017,"nx":28,"ny":28,"refTime":"2025-07-20T03:00:00:Z","depth":0,"parameterNumber":3,"parameterNumberName":"V-component_of_WINDS"},"data":[0,0,0,0,0,0,0,0,0,0,0,0,0,0,0,0,0,0,0,0,0,0,0,0,0,0,0,0,0,0,0,0,0,0,0,0,0,0,0,0,0,0,0,0,0,0,0,0,0,0,0,0,0,0,0,0,0,0,-0.1952,-0.1952,0,-0.2003,-0.2004,-0.2005,-0.203,-0.203,-0.203,-0.203,-0.2085,-0.2086,-0.2088,0,0,0,0,0,0,0,0,0,0,0,0,0,-0.1877,-0.1878,-0.1952,-0.1952,-0.1953,-0.2003,-0.2004,-0.2005,-0.203,-0.203,-0.203,-0.203,-0.2084,-0.2086,-0.2088,0,0,0,0,0,0,0,0,0,0,0,0,0,-0.1917,-0.1879,-0.1951,-0.1972,-0.1974,-0.2003,-0.2004,-0.2005,-0.203,-0.203,-0.203,-0.203,-0.2084,-0.2086,-0.2088,-0.2102,0,0,-0.2095,-0.2096,0,0,0,0,0,0,0,0,-0.1915,-0.192,-0.1968,-0.197,-0.1973,-0.201,-0.1998,-0.2037,-0.203,-0.2009,-0.203,-0.203,-0.206,-0.2064,-0.2074,-0.2104,-0.2107,-0.2095,-0.2096,-0.2097,-0.2098,0,0,0,0,0,0,0,-0.1912,-0.1918,-0.1972,-0.1969,-0.1972,-0.1979,-0.1985,-0.2006,-0.2034,-0.2011,-0.2013,-0.2019,-0.2062,-0.2072,-0.2076,-0.2107,-0.2095,-0.2097,-0.2098,-0.2099,-0.2153,-0.2153,0,0,0,0,0,0,-0.1906,-0.1915,-0.1971,-0.1974,-0.1943,-0.198,-0.1987,-0.1998,-0.2034,-0.2039,-0.2019,-0.202,-0.2068,-0.2073,-0.2078,-0.2097,-0.2097,-0.2099,-0.2101,-0.2153,-0.2153,-0.2154,0,0,0,0,0,0,-0.1904,-0.191,-0.1968,-0.1945,-0.1953,-0.1982,-0.1995,-0.1999,-0.201,-0.204,-0.2045,-0.2024,-0.2068,-0.2075,-0.2096,-0.2099,-0.21,-0.2102,-0.2153,-0.2153,-0.2153,-0.2135,0,0,0,0,0,0,-0.1902,-0.191,-0.1914,-0.1945,-0.1954,-0.1985,-0.1995,-0.2,-0.2013,-0.2015,-0.2046,-0.2051,-0.2069,-0.2092,-0.2098,-0.2102,-0.2104,-0.2153,-0.2153,-0.2153,-0.2136,-0.2135,-0.2134,0,0,0,0,0,-0.1899,-0.1907,-0.1914,-0.1921,-0.1961,-0.1985,-0.199,-0.201,-0.2013,-0.2019,-0.2039,-0.205,-0.2098,-0.2094,-0.2101,-0.2106,-0.2153,-0.2153,-0.2153,-0.2136,-0.2135,-0.2134,0,0,0,0,0,0,-0.1876,-0.1911,-0.192,-0.1938,-0.1958,-0.1989,-0.1997,-0.2008,-0.2028,-0.2029,-0.2054,-0.2061,-0.208,-0.2095,-0.209,-0.2122,-0.2127,-0.2128,-0.2111,-0.211,-0.211,-0.2106,-0.2106,0,0,0,0,0,-0.1873,-0.1889,-0.192,-0.1933,-0.1942,-0.1968,-0.1979,-0.1993,-0.2015,-0.2024,-0.2045,-0.2066,-0.2087,-0.2099,-0.2119,-0.2138,-0.2146,-0.2145,-0.2144,-0.2143,-0.2144,-0.2157,-0.2157,-0.2154,-0.2154,-0.2154,0,0,-0.1867,-0.1889,-0.1897,-0.1929,-0.1946,-0.1963,-0.1975,-0.1992,-0.2006,-0.2027,-0.2048,-0.2064,-0.209,-0.2111,-0.2121,-0.2124,-0.2147,-0.2144,-0.2143,-0.2144,-0.2157,-0.2158,-0.2158,-0.2155,-0.2155,-0.2155,0,0,-0.1865,-0.1882,-0.1896,-0.1913,-0.1939,-0.1957,-0.196,-0.1989,-0.2001,-0.2023,-0.204,-0.2057,-0.209,-0.2108,-0.2122,-0.2129,-0.2141,-0.2135,-0.2131,-0.2143,-0.2143,-0.2143,-0.2147,-0.2148,-0.2136,-0.2136,-0.2136,0,-0.1855,-0.1881,-0.1901,-0.1918,-0.1932,-0.1952,-0.1967,-0.1983,-0.2014,-0.2024,-0.2027,-0.2071,-0.209,-0.2115,-0.2117,-0.2127,-0.2133,-0.2131,-0.2141,-0.2142,-0.2142,-0.2146,-0.2147,-0.2135,-0.2135,-0.2135,-0.2135,0,-0.1867,-0.1885,-0.1893,-0.1923,-0.1938,-0.1953,-0.1977,-0.199,-0.2003,-0.202,-0.2043,-0.2067,-0.2093,-0.21,-0.2112,-0.2128,-0.2129,-0.2136,-0.2142,-0.2141,-0.2146,-0.2147,-0.2134,-0.2134,-0.2134,-0.2135,0,0,-0.1851,-0.1894,-0.1896,-0.1911,-0.1942,-0.1957,-0.1974,-0.1999,-0.201,-0.2032,-0.2048,-0.2076,-0.2084,-0.2099,-0.2114,-0.2125,-0.213,-0.2131,-0.2132,-0.2131,-0.2151,-0.2146,-0.2147,-0.2138,-0.2139,-0.2139,-0.2149,0,-0.1855,-0.1886,-0.1906,-0.1929,-0.1947,-0.1967,-0.1982,-0.2004,-0.202,-0.2039,-0.2058,-0.2078,-0.2085,-0.2095,-0.2107,-0.2127,-0.2135,-0.2127,-0.2155,-0.2155,-0.2148,-0.2149,-0.2143,-0.2151,-0.2151,-0.2151,-0.2151,0,-0.1862,-0.1883,-0.1909,-0.1939,-0.1947,-0.1961,-0.1986,-0.2003,-0.2028,-0.204,-0.2058,-0.2073,-0.2094,-0.2097,-0.2127,-0.2121,-0.2133,-0.2145,-0.2146,-0.215,-0.2153,-0.2154,-0.2154,-0.2156,-0.2153,-0.2153,-0.2153,0,-0.185,-0.1884,-0.1904,-0.1916,-0.1952,-0.1961,-0.1977,-0.2002,-0.2016,-0.2039,-0.2049,-0.2073,-0.2087,-0.2107,-0.2129,-0.2129,-0.2156,-0.2161,-0.2168,-0.2167,-0.2173,-0.2172,-0.2176,-0.218,-0.218,-0.218,-0.218,0,-0.1851,-0.1866,-0.19,-0.1912,-0.193,-0.1953,-0.1971,-0.1988,-0.2011,-0.2028,-0.2047,-0.2062,-0.209,-0.211,-0.2128,-0.215,-0.2156,-0.2167,-0.2171,-0.2165,-0.2164,-0.2175,-0.2175,-0.218,-0.218,-0.218,-0.218,0,-0.184,-0.1863,-0.1886,-0.1919,-0.1927,-0.1939,-0.1968,-0.1981,-0.1999,-0.2021,-0.2027,-0.2056,-0.208,-0.2104,-0.2137,-0.2149,-0.2171,-0.2177,-0.2163,-0.2165,-0.2171,-0.217,-0.2182,-0.2186,-0.2186,-0.2186,-0.2186,0,-0.184,-0.1852,-0.1886,-0.1899,-0.1914,-0.1934,-0.1949,-0.1973,-0.1988,-0.2019,-0.2029,-0.2054,-0.2076,-0.2114,-0.2139,-0.2164,-0.2171,-0.2174,-0.2175,-0.2169,-0.2173,-0.2172,-0.2174,-0.2173,-0.2173,-0.2173,-0.2173,0,-0.1838,-0.1849,-0.1869,-0.1894,-0.1912,-0.1933,-0.1954,-0.1964,-0.1992,-0.2009,-0.2033,-0.205,-0.2084,-0.211,-0.2138,-0.2156,-0.217,-0.2172,-0.2175,-0.217,-0.2161,-0.2167,-0.2162,-0.2172,-0.2172,-0.2172,-0.2172,-0.2172,-0.1833,-0.1845,-0.1872,-0.1894,-0.1913,-0.1933,-0.1948,-0.1968,-0.199,-0.2019,-0.2032,-0.2057,-0.2084,-0.2124,-0.2141,-0.2162,-0.2166,-0.217,-0.2171,-0.2172,-0.2171,-0.2157,-0.2167,-0.2167,-0.2167,-0.2168,-0.2168,0,-0.1833,-0.1851,-0.1872,-0.1901,-0.192,-0.1931,-0.1956,-0.1971,-0.1993,-0.2016,-0.2038,-0.2067,-0.2093,-0.212,-0.2147,-0.2159,-0.2166,-0.2165,-0.2165,-0.2169,-0.2166,-0.2161,-0.2159,-0.2159,-0.2159,-0.2159,-0.2159,-0.2159,-0.1835,-0.1857,-0.1871,-0.1903,-0.1921,-0.1946,-0.196,-0.1979,-0.1998,-0.203,-0.2051,-0.2069,-0.2094,-0.2124,-0.2148,-0.2155,-0.2165,-0.2163,-0.2172,-0.2168,-0.2169,-0.217,-0.2165,-0.2164,-0.2164,-0.2174,-0.2174,-0.2174]}]]